Location: Newark
(51.6497°N, 3.9164°E)
Time: 01:43:00
(UTC+00:00)

N. Korean satellite - Visible Passes

Search period start: 01 October 2020 00:00
Search period end: 11 October 2020 00:00
Orbit: 455 x 503 km, 97.2° (Epoch: 30 September)

Date Brightness Start Highest point End Pass type
(mag) Time Alt. Az. Time Alt. Az. Time Alt. Az.
01 Oct 9.9 04:17:23 10° NE 04:19:21 14° E 04:21:18 10° ESE visible
03 Oct 8.4 04:57:33 10° NNE 05:00:55 36° E 05:04:13 10° SSE visible
04 Oct 9.6 04:31:59 10° NE 04:34:41 20° E 04:37:20 10° SE visible
05 Oct 10.3 04:07:31 10° ENE 04:08:20 11° E 04:09:10 10° E visible
06 Oct 7.5 05:12:35 10° NNE 05:16:08 54° E 05:19:34 10° S visible
07 Oct 8.9 04:46:48 10° NE 04:49:56 28° E 04:52:59 10° SSE visible
08 Oct 9.9 04:21:29 10° NE 04:23:38 15° E 04:25:45 10° SE visible
09 Oct 10.5 17:43:26 10° WSW 17:44:57 12° W 17:46:29 10° WNW visible
10 Oct 8.1 05:01:44 10° NNE 05:05:07 40° E 05:08:24 10° S visible
